Regional Weather Roundup
Issued by NWS

Home | Current Version | Previous Version | Graphics & Text | Print | Product List | Glossary On
Versions: 1 2 3 4 5 6 7 8 9 10 11 12 13 14 15 16 17 18 19 20 21 22 23 24 25 26 27 28 29 30 31 32 33 34 35 36 37 38 39 40 41 42 43 44 45 46 47 48 49 50
622
ASUS43 KDTX 230201
RWRMI
MICHIGAN HOURLY REGIONAL WEATHER ROUNDUP
NATIONAL WEATHER SERVICE DETROIT/PONTIAC MI
1000 PM EDT TUE AUG 22 2017

NOTE: "FAIR" INDICATES FEW OR NO CLOUDS BELOW 12,000 FEET WITH NO
SIGNIFICANT WEATHER AND/OR OBSTRUCTION TO VISIBILITY.

MIZ047>049-052>055-059>063-066>070-074>076-081>083-230300-
SOUTHEAST LOWER MICHIGAN

CITY           SKY/WX    TMP DP  RH WIND       PRES   REMARKS
ADRIAN         CLEAR     64  53  67 NW6       29.92R
ALMA           CLEAR     61  52  71 W5        29.90R
ANN ARBOR      CLEAR     66  53  63 W7        29.90R
BAD AXE        CLEAR     60  52  73 W5        29.86R
CARO           CLEAR     60  52  74 W5        29.87R
DETROIT CITY   CLEAR     70  54  56 NW9       29.87R
DETROIT        PTCLDY    70  54  56 NW10      29.89R
FLINT          CLEAR     60  53  77 W7        29.89R
GROSSE ILE     PTCLDY    71  55  56 NW9G16    29.87R
HILLSDALE      CLEAR     61  52  72 NW6       29.93R
HOWELL         CLEAR     62  53  72 W5        29.91R

CITY           SKY/WX    TMP DP  RH WIND       PRES   REMARKS
JACKSON        CLEAR     62  53  72 SW3       29.92R
LAMBERTVILLE   CLEAR     66  55  66 CALM      29.90R
LANSING        CLEAR     65  51  60 W7        29.92R
LAPEER         FAIR      64  54  70 NW5       29.88R
MASON          CLEAR     65  53  65 W5        29.92R
MONROE         CLEAR     68  55  63 NW9       29.88R
MT. CLEMENS    CLEAR     67  55  64 W6        29.85R
PONTIAC        CLEAR     65  53  65 W9        29.88R
PORT HOPE        N/A     67  51  56 W15G24    29.82R
PORT HURON     CLEAR     61  57  88 CALM      29.86S
TRI CITIES     CLEAR     64  55  72 W8        29.88R
MIDLAND        FAIR      59  55  85 CALM      29.87R
TROY           CLEAR     69  52  53 W5        29.90R
SAGINAW HB     CLEAR     63  52  67 W7        29.87R
$$
MIZ043>046-050>051-056>058-064>065-071>073-077>080-230300-
SOUTHWEST LOWER MICHIGAN

CITY           SKY/WX    TMP DP  RH WIND       PRES   REMARKS
BATTLE CREEK   CLEAR     62  55  77 W6        29.94R
BENTON HARBOR  CLEAR     70  52  52 VRB6      29.95R
BIG RAPIDS     CLEAR     60  51  71 W5        29.90R
COLDWATER      CLEAR     62  53  73 NW3       29.94R
FREMONT        FAIR      62  55  77 W3        29.91R
HOLLAND        CLEAR     67  53  61 NW5       29.94R
GRAND RAPIDS   CLEAR     66  53  63 W6        29.92R
IONIA          FAIR      64  52  64 W6        29.91R
KALAMAZOO      CLEAR     64  54  69 W5        29.95R
LUDINGTON      CLOUDY    68  52  56 NW12      29.90R
MARSHALL       CLEAR     60  54  82 W3        29.93R
MOUNT PLEASANT CLEAR     64  52  64 W5        29.88S
MUSKEGON       CLEAR     70  53  54 NW10      29.92R
SOUTH HAVEN    CLEAR     70  50  48 N12G17    29.94R
$$
MIZ016>042-230300-
NORTHERN LOWER MICHIGAN

CITY           SKY/WX    TMP DP  RH WIND       PRES   REMARKS
ALPENA         CLEAR     62  52  69 W5        29.82R
BEAVER ISLAND  CLEAR     63  52  67 W6        29.83S
BELLAIRE       CLEAR     65  50  58 W3        29.85R
CADILLAC       PTCLDY    60  50  70 W7        29.89R
CHARLEVOIX     CLEAR     64  55  70 NW6       29.87R
FRANKFORT      CLEAR     67  54  61 NW13      29.87S
GAYLORD        CLEAR     55  50  83 CALM      29.85R
GRAYLING       CLEAR     58  48  68 SW3       29.87R
HARBOR SPRINGS CLEAR     60  49  67 W6        29.83S
HOUGHTON LAKE  CLEAR     64  50  60 W12       29.87S
MANISTEE       MOCLDY    68  53  58 NW10      29.89R
OSCODA         CLEAR     59  50  72 W6        29.83R
PELLSTON       CLEAR     60  51  72 W7        29.82R
ROGERS CITY    CLEAR     59  51  73 W3        29.82R
TRAVERSE CITY  PTCLDY    64  51  62 W5        29.85R
$$
MIZ007>008-015-230300-
EASTERN UPPER MICHIGAN

CITY           SKY/WX    TMP DP  RH WIND       PRES   REMARKS
KINROSS        CLEAR     57  51  80 W8        29.78R
MACKINAC ISLAN CLEAR     62  52  69 W17G25    29.79S
NEWBERRY       MOCLDY    54  53  97 W7        29.81S
S. S. MARIE    CLEAR     61  51  70 W14G22    29.75S
MUNISING         N/A     64  54  69 NW8       29.83R
$$
MIZ004>006-011>014-085-230300-
CENTRAL UPPER MICHIGAN

CITY           SKY/WX    TMP DP  RH WIND       PRES   REMARKS
MANISTIQUE     CLEAR     58  49  73 W3        29.83R
ESCANABA       CLEAR     58  52  80 W5        29.86R
MENOMINEE      CLEAR     63  51  65 VRB3      29.90R
SAWYER-GWINN   PTCLDY    57  50  77 W10G16    29.86S
$$
MIZ001>003-009>011-084-230300-
WESTERN UPPER MICHIGAN

CITY           SKY/WX    TMP DP  RH WIND       PRES   REMARKS
IRON MOUNTAIN  CLEAR     59  50  72 W7        29.88S
HOUGHTON       CLOUDY    60  52  74 NW17      29.84R
COPPER HARBOR    N/A     59  54  83 N13       29.81R
IRONWOOD       CLOUDY    56  54  93 W6        29.94S
$$

ABBREVIATIONS USED IN REMARKS
   TC - TEMPERATURE IN CELSIUS
  WCI - WIND CHILL INDEX
   HX - HEAT INDEX
  VSB - VISIBILITY





USA.gov is the U.S. government's official web portal to all federal, state and local government web resources and services.